Location: Newark
(46.8500°N, 5.1667°E)
Time: 06:49:57
(UTC+00:00)

ISS - Visible Passes

Search period start: 17 September 2019 00:00
Search period end: 27 September 2019 00:00
Orbit: 411 x 421 km, 51.6° (Epoch: 17 September)

Date Brightness Start Highest point End Pass type
(mag) Time Alt. Az. Time Alt. Az. Time Alt. Az.
18 Sep -1.5 19:24:18 10° SSW 19:24:56 14° S 19:24:56 14° S visible
19 Sep -1.9 18:36:46 10° S 18:38:43 15° SE 18:39:20 14° ESE visible
19 Sep -1.1 20:11:42 10° WSW 20:12:16 14° WSW 20:12:16 14° WSW visible
20 Sep -3.6 19:23:21 10° SW 19:26:23 52° SSE 19:26:23 52° SSE visible
21 Sep -3.0 18:35:10 10° SSW 18:38:12 34° SE 18:40:17 17° E visible
21 Sep -1.6 20:11:35 10° W 20:13:12 25° W 20:13:12 25° W visible
22 Sep -3.7 19:23:01 10° WSW 19:26:20 73° NNW 19:26:55 54° NE visible
23 Sep -3.9 18:34:30 10° WSW 18:37:49 78° SSE 18:40:31 15° ENE visible
23 Sep -1.5 20:11:37 10° W 20:13:24 25° WNW 20:13:24 25° WNW visible
24 Sep -2.8 19:22:56 10° W 19:26:09 44° NNW 19:26:53 37° NNE visible
25 Sep -3.2 18:34:17 10° W 18:37:33 56° NNW 18:40:17 14° ENE visible
25 Sep -1.3 20:11:37 10° WNW 20:13:10 22° NW 20:13:10 22° NW visible
26 Sep -2.6 19:22:56 10° WNW 19:26:01 35° N 19:26:30 33° NNE visible
